Member area
Imprimable
Wissant, 09-10/09/2017, BEL - Trail de la Côte d'Opale
List of reports > 24km - Result
Search: Page: [1]
356 Entries
 
Complains are not accepted anymore. Results are final.
PlaceNrLicenceNameAgeNATTeamTimeTkmMoy.ScrCity
1.6508MAHIA Sebastien31BELRUN ATTITUDE GEMBLOUX1:36:344:02 14.911
2.6361MARTINEZ Rémi27FRA1:39:364:09 14.462
3.6290LEKEU Frédérick36BEL1:41:234:14 14.203
4.7205CAUUET Olivier36FRA1:42:544:18 14.005
5.6316DE GROOTE Nicolas36FRALILLE METROPOLE ATHLETISM1:44:574:23 13.727
6.7109BREUVART Martin39FRA1:45:124:23 13.698
7.6429DOBY Clement34FRA1:45:244:24 13.669
8.6076PIETTE Frederic38BELBSE1:45:494:25 13.6110
9.6137HARLÉ Alexis36FRA1:46:214:26 13.5412
10.6424LHEUREUX François36BEL1:49:354:34 13.1414
11.6769DEVENYNS Stéphane38BELQUINTEAM1:49:504:35 13.1115
12.6255GODELAINE Stéphane36BEL1:51:284:39 12.9217
13.7267CAMBIER Hugo21FRA1:51:584:40 12.8619
14.6144PIASECKI Romain29FRA1:52:254:42 12.8122
15.7392BOISLEUX Arthur24FRATEAM MYRUNNING1:53:174:44 12.7125
16.7252SPREUX David36BEL1:55:174:49 12.4931
17.6243B'AHEU Romain36FRAAC OUTREAU1:55:224:49 12.4832
18.7593TONEGUZZO Julien34FRATEAM GRAVELINES TRAIL1:55:444:50 12.4433
19.7437LEFEBVRE Alexandre37FRAALINHA1:56:134:51 12.3935
20.6734PROUVOST Maxime38FRAPOUR TOUS LES TEMPS1:56:144:51 12.3936
21.6357LIBEER Matthieu39FRA1:56:154:51 12.3937
22.6352MOUQUIN Olivier32FRA1:56:404:52 12.3439
23.7462BRULEZ Thomas36FRA1:56:554:53 12.3241
24.6944DELEBARRE Matthieu39FRA1:56:564:53 12.3242
25.7566GILLET David36BELRUNANDSMASH1:56:594:53 12.3143
26.6173CHARLEMAGNE Lionel32FRA1:57:164:54 12.2845
27.7037GRIGIS Loic37BELJCPMF FLV1:57:274:54 12.2646
28.7118LEMAIRE Franck38FRA1:57:444:55 12.2349
29.6016DESOMBRE Damien35FRA1:58:354:57 12.1452
30.7218D'AFFNAY Jean-Francois38FRA1:58:404:57 12.1453
31.6269GORRIQUER Guillaume26FRA1:58:444:57 12.1355
32.6527CORBISIER Nicolas35FRACPSS CARVIN1:58:584:58 12.1056
33.6034WOLAK Arnaud34FRA1:59:124:58 12.0857
34.6814DUBOIS Anthony32FRACE ALSTOM1:59:314:59 12.0559
35.6121DELIEGE Hugues36FRA1:59:565:00 12.0163
36.6975BIGOT François36FRA2:00:295:02 11.9568
37.6811MILLE Xavier33FRABOURTHES RUNNING2:00:425:02 11.9369
38.6951TOULEMONDE Anthony32FRA2:00:465:02 11.9270
39.7428CHAMPENOIS Christophe36FRA2:01:195:04 11.8772
40.7447TALPAERT Maxime38FRA2:01:495:05 11.8273
41.7082CHEVALIER Constant22FRATEAM FOLPERDRIX2:02:035:06 11.8074
42.6376COQUET Jonathan39FRACOURIR A ABBEVILLE2:02:075:06 11.7975
43.6157FILLY Sebastien39FRA2:02:305:07 11.7677
44.6023DUMORTIER Sébastien38FRAEUROTUNNEL2:02:515:08 11.7278
45.7030MIRMONT Rémi35FRAGENDARMERIE2:02:575:08 11.7179
46.6511MARCOURT Adrien28FRA2:03:075:08 11.7080
47.7276LOPEZ Benjamin33FRA2:03:435:10 11.6482
48.6973GOMEL Maxime29FRA2:03:485:10 11.6384
49.7100BOCQUET Rudolph39DECATHLON ST-MARTIN2:04:335:12 11.5687
50.6375JOURNÉ Sébastien39FRA2:05:195:14 11.4990
51.6730VAHÉ Léo25FRA2:05:305:14 11.4792
52.6483MEERSCHAUT Frederic36BEL2:05:365:14 11.4793
53.6852VANGRUNDERBEEK Sebastian33BEL2:06:005:15 11.4394
54.6070KLAUER Jonathan31BELRUNNING TEAM CONDROZ2:06:025:16 11.4395
55.6810CARLU Francois37FRABOURTHES2:06:065:16 11.4297
56.7338STILITE Yoann23BELTHEODO TEMPO2:06:075:16 11.4299
57.7534DOURDIN Nicolas34FRA2:06:155:16 11.41100
58.7302DENECKER Nicolas37FRA2:06:155:16 11.41101
59.6931TIBERGHIEN Matthieu39FRA2:06:255:17 11.39103
60.7178GUILLON Maxime31FRA2:06:295:17 11.39104
61.6077BALLARD Jean-Christophe38BELGEMBLOUX TRIATHLON CLUB2:07:055:18 11.33105
62.7573MORIN Antoine27FRA2:07:255:19 11.30111
63.6128MAETZ Laurent34FRA2:07:275:19 11.30112
64.6115CHARLIER Guillaume32FRAOCAN2:07:445:20 11.27116
65.7228CHEMSI Jaoid39FRATRIGT2:07:455:20 11.27117
66.7455DEVIN Jordane31FRATDR CRAPONNE2:08:095:21 11.24120
67.7285LETURCQ Fabien37BELS.P.H.O2:08:265:22 11.21122
68.6018FAVIERE Aurélien31FRA2:08:405:22 11.19125
69.7426BOCKLANDT Julian35BELTHEODO TEMPO2:08:415:22 11.19126
70.6984THARIN Maxime33FRA2:08:485:22 11.18128
71.7132BOUCHE Cedric38FRA2:08:495:23 11.18129
72.6726VANDEWALLE Aurélien31BEL2:08:595:23 11.17132
73.7226ROBIN Adrien29FRA2:09:065:23 11.16134
74.6963FURMANIAK Alexis31FRA2:09:235:24 11.13137
75.6066ROISSE Sebastien38BELÉCLATES PERUWELZ2:09:575:25 11.08144
76.7360NORMAND Gonzague38FRAGRAVITY RUNNING EXPERIENC2:10:095:26 11.07147
77.6395GRESSIER Antoine37FRA2:10:155:26 11.06148
78.7279SOENS Matthieu35BEL2:10:445:27 11.02152
79.6452RADOT Thomas39FRABERLIÈRE2:10:455:27 11.01153
80.7289FORTIN Tanguy28FRA2:10:525:28 11.00156
81.7485ROMMELARD Remi32FRA2:11:095:28 10.98160
82.6286GRANDMAISON Grégory35BELBOUBIET TEAM2:11:205:29 10.97161
83.7467MELEUC Ludovic32FRA2:11:355:29 10.94163
84.7315MONCOUSIN Fabien38BEL2:11:385:30 10.94165
85.7533OLBRECHTS Nissim34BEL2:11:385:30 10.94166
86.7443TRENTESAUX Bastien39FRA2:11:405:30 10.94167
87.6275MOLINARD Vincent37FRA2:12:205:31 10.88172
88.6161WATHELET Gilles34BELTEAM LINCÉ2:12:245:31 10.88173
89.6594DELESALLE Edouard34FRA2:12:305:32 10.87174
90.6870SMEKTALA Antoine33FRA2:12:315:32 10.87176
91.6981FAIDHERBE Remi30FRALES BALTRINGUES2:13:015:33 10.83185
92.6292LECLERCQ Julien29BEL2:13:025:33 10.82186
93.6773STERNADEL Maxime37FRA2:13:415:35 10.77194
94.6337DA COSTA Eric37FRABLARINGHEM TRAIL2:13:475:35 10.76195
95.6156DALLE Edouard28FRA2:14:005:35 10.75197
96.7354FORTRY Georges37FRAHERLIES RANDO RUN2:14:345:37 10.70204
97.6105HEMERY Francois36FRA2:14:375:37 10.70205
98.7483VANDERSLUYS Sébastien39FRA2:14:485:37 10.68206
99.7019MARZOLF Harald37FRA2:15:055:38 10.66213
100.6260COISNE Edouard31FRAMOFFI2:15:055:38 10.66215
101.7111VANOVERSCHELDE Lionel34BEL2:15:325:39 10.63220
102.6341DRANCOURT Aurelien38FRA2:15:425:40 10.61222
103.6051LEFEVRE Antoine39FRA2:15:495:40 10.60223
104.6350VANDEN-WILDENBERG Jérémy37FRA2:15:505:40 10.60224
105.6487FASSIN Jean François36BEL2:16:115:41 10.57225
106.7015CHARBONNEAU Thomas39FRA2:16:245:41 10.56227
107.6860BAULOYE Geoffrey35BELTRAILERS DES FAGNES2:16:375:42 10.54229
108.6438LEGRY Nicolas30FRA2:16:525:43 10.52232
109.6148CASTILLE Damien24BEL2:17:035:43 10.51235
110.7255MYLLE Cedric34FRA2:17:245:44 10.48239
111.6998COISNE Cesar33FRA2:17:275:44 10.48240
112.6826REYTINAS Quentin32FRA2:17:375:45 10.46243
113.6389VITOUX Cyrille30FRA2:17:385:45 10.46244
114.6323BEASSE Guillaume33FRA2:17:445:45 10.46246
115.7356AUTPHENNE Michael27BEL2:17:485:45 10.45248
116.7181DHERBIGNY Louis32FRA2:17:585:45 10.44251
117.7299BONNART Pierre38FRA2:18:015:46 10.43252
118.7482DENIS Ludovic39FRA2:18:375:47 10.39257
119.6766LANTOINE Pierre36FRARC ARRAS2:18:505:48 10.37259
120.6388VITOUX Thomas36FRA2:18:515:48 10.37260
121.7172ROOBAERT Michel31BEL2:18:545:48 10.37261
122.7161GOETGELUCK Arnaud24FRA2:18:555:48 10.37262
123.7104GHESQUIERE David38BELETM2:18:565:48 10.36264
124.6644POTTIER Guillaume23FRALES TRAILS LENTS2:19:165:49 10.34271
125.6792MULOCHOT Maxime32FRA2:19:505:50 10.30278
126.7568WALLEMACQ Thierry37BEL2:19:565:50 10.29280
127.7221OCTAU Baptiste29FRAIRON VIKING 762:19:585:50 10.29281
128.6118MARCY Julien35FRA2:20:025:51 10.28282
129.7311COGEZ Benjamin39FRA2:20:105:51 10.27283
130.6797LINDER Mathieu39FRA2:20:285:52 10.25288
131.6017VIGNAU Paul-Antoine26FRA2:20:295:52 10.25289
132.7321DURIEZ Olivier35FRA2:20:295:52 10.25290
133.7331BRICHE Cedric34FRALES COUREURS DES LOUPS BL2:20:435:52 10.23292
134.7220CAQUANT Vianney33FRA2:20:495:53 10.23293
135.6329PIERRU Sebastien38FRA2:21:165:54 10.19300
136.6731VIÉ Nicolas29FRA2:21:275:54 10.18302
137.6126VANNEROT Arnaud33FRA2:21:325:54 10.17304
138.6482DESBONNETS Jeremy39FRARUNNERS DE BONDUES2:21:385:55 10.17305
139.7502THULLIEZ Gregory37FRA2:21:435:55 10.16307
140.6573SOUDAIN Nicolas34FRA2:21:505:55 10.15310
141.7487PIRE Arnaud35BELETHIAS RUNNING2:21:555:55 10.15312
142.6590MILLOT Hugues35FRA2:22:075:56 10.13316
143.6983OURDOUILLIE Ludovic39FRAASSOCIATION AIDONS AGATHE2:22:135:56 10.13317
144.6584SENECHAL Kevin30FRA2:22:135:56 10.13318
145.6067FONTAINE Francois39FRA2:22:435:57 10.09320
146.7265SORANNO Benjamin37FRA2:22:505:58 10.08321
147.6942FLAMENT Michael28FRA2:22:535:58 10.08322
148.6819DE WAELE Olivier39BEL2:23:275:59 10.04330
149.7013DECANTER Henri32FRA2:23:376:00 10.03334
150.7263LAHAYE Thibaut22BEL2:24:036:01 10.00336
151.6796DUPILET Jeremie38FRA2:24:256:02 9.97341
152.7251VASSEUR Benjamin26FRA2:24:266:02 9.97342
153.7231BEUSCART Benjamin33FRA2:24:436:02 9.95346
154.7547MARQUE Samuel36FRACRUFC2:24:596:03 9.93350
155.6252COCHEZ Pierre-Antoine29FRA2:25:066:03 9.92353
156.6932GIRARD Charles-Antoine33FRA2:25:126:03 9.92354
157.6642DESCAMPS Antoine26FRA2:25:246:04 9.90357
158.6507COSTANZO Erasmo34BELBOUFFIOLS2:25:596:05 9.86360
159.6501CHEVALIER Mickael35FRA2:26:076:06 9.86361
160.6274SINEYEN Steeven39FRA2:26:186:06 9.84363
161.6241MARTEL Loïc34FRATEAM GRAVELINES TRAIL2:26:236:06 9.84365
162.7594VERHEGGEN Ludovic37BELA TROIS ON Y VA2:26:586:08 9.80377
163.6480PAQUET Nicolas38FRA2:27:006:08 9.80378
164.7190LABBE Quentin28FRA2:27:136:09 9.78381
165.7121WILLERVAL Franck33FRAQUESNOY POUR TOUS LES TEM2:27:236:09 9.77386
166.6133VANTROYS Mathieu38FRA2:27:266:09 9.77387
167.7495BOURDON Benjamin35FRA2:27:506:10 9.74390
168.6540SOUAMI Lounis31FRA2:27:536:10 9.74392
169.6539BOIS Antoine32FRA2:27:536:10 9.74393
170.7110DENIS Nicolas39FRA2:28:046:11 9.73396
171.7180GUILLON Victor23FRA2:28:056:11 9.72397
172.6250VANDEWALLE Matthias33BELLES GAULOIS2:28:086:11 9.72398
173.7258CHRISTORY Charles32FRA2:28:376:12 9.69405
174.7408GOURANTON Alann28FRA2:28:426:12 9.68408
175.6271CROUZET Thomas39FRA2:28:526:13 9.67412
176.6160ROUSERE Christophe38FRA2:29:066:13 9.66414
177.6073HAVIER Samuel36FRAUSL JOGGING2:29:116:13 9.65416
178.6238RINGEVAL Julien38FRA2:29:126:13 9.65417
179.6363BENOIT Cedric37FRA2:29:206:14 9.64421
180.6964CUITOT Guillaume34FRA2:29:236:14 9.64422
181.6298COUTURIER Julien36FRA2:29:246:14 9.64423
182.6119COUVREUR Nicolas38FRA2:29:356:14 9.63426
183.6958LAURENT Martin32FRA2:29:556:15 9.61428
184.7261GUIDEZ Thomas35FRA2:29:566:15 9.60429
185.6953GONIN Matthieu38FRA2:30:146:16 9.59430
186.6383COUSIN Benoit35BELTORTUES MESLINOISES2:30:266:17 9.57433
187.7464LEROY Jessy21FRA2:30:386:17 9.56435
188.6647WARNOTTE Thomas36BELSOLVAY BRUSSELS TRIATHLON2:30:426:17 9.56438
189.7241MORDACQ Vincent36FRA2:31:206:19 9.52445
190.6869ROY Simon39FRA2:31:256:19 9.51447
191.6035MILLON Adrien35FRA2:32:056:21 9.47454
192.7284GOURLET Damien39FRA2:32:076:21 9.47455
193.7468DARGENT Stive35BELBOUBIET TEAM2:32:206:21 9.45460
194.7270LEMATTRE Mathieu25FRA2:32:286:22 9.45462
195.6582LEJCZYK Samuel37FRA2:32:326:22 9.44464
196.6110SERVAIS Sebastien37BEL2:32:336:22 9.44465
197.6335CORNU Thomas37FRA2:32:476:22 9.43470
198.6336LE FEYER Gauthier38FRA2:32:486:22 9.43471
199.6999DISSAUX Armand31FRAHERLIES RANDO RUN2:32:496:23 9.42473
200.7227BEYOU François25FRA2:32:506:23 9.42474
201.7357BERTHE Julien31FRAONERA2:32:506:23 9.42475
202.6014VIGNOZZI Alexandre37DECATHLON ST-MARTIN2:32:536:23 9.42477
203.6390DETAVERNIER Quentin25FRAJOGGANS2:33:036:23 9.41479
204.6063BROOTCORNE Benjamin38BEL2:33:216:24 9.39483
205.6022MARTEEL Julien35FRAEUROTUNNEL2:33:246:24 9.39484
206.7476BLAIRON Benjamin32BEL/2:33:386:25 9.37488
207.7003SANT Maxime32FRA2:33:586:25 9.35496
208.6738DEGROOTE Nicolas33FRA2:34:106:26 9.34499
209.7223BORREY Wim36BELLES FOULÉES DU PLAISIR2:34:196:26 9.33501
210.6043DAVAL Dorian32FRA2:34:356:27 9.32503
211.6535BETHOUART Etienne30FRA2:34:366:27 9.32504
212.6945DEWAVRIN Arnaud31FRA2:34:376:27 9.31505
213.6987GRIMONPONT Pierre31FRA2:35:006:28 9.29511
214.7084BOCQUET Donatien38FRA2:35:116:28 9.28515
215.7179DESTOMBES Pierre-Yves34FRA2:35:316:29 9.26520
216.6742KINGET Francois37FRA2:36:006:30 9.23525
217.6228LEMAIRE Florent39FRA2:36:156:31 9.22530
218.6201LEVRAT Virgile19FRA2:36:236:31 9.21534
219.6151DELANNOY Marc31FRA2:36:306:32 9.20537
220.7222MONTAY David33FRA2:36:446:32 9.19539
221.6961MESNARD Antoine34FRA2:37:146:34 9.16542
222.6505DOUCHAIN Romain27FRA2:37:186:34 9.15544
223.6419DELCAMBE Julien21BEL2:37:216:34 9.15545
224.6577BERGER Christophe37BEL2:37:236:34 9.15547
225.6744DOURLENS Julien35FRA2:37:376:35 9.14550
226.6500DUMERLE Francois33FRA2:37:476:35 9.13552
227.6878DELLICOUR Simon31BEL2:38:326:37 9.08562
228.7410HORCKMANS Thomas34FRA2:38:346:37 9.08563
229.7411DUFOUR Florent31FRA2:38:346:37 9.08564
230.7002THIRIEZ Thomas33FRA2:38:566:38 9.06568
231.6062PREVOT Jonathan29FRADENAIN2:39:386:40 9.02574
232.6793LIEVEN Rémi26FRA2:39:396:40 9.02575
233.6107VANHOREBECK Damien36FRA2:39:396:40 9.02576
234.6215LEIST Simon37FRA2:39:576:40 9.00581
235.7287DHONTE Thomas28FRA2:40:046:41 9.00586
236.7046SOUFFLET Odin26FRA2:40:146:41 8.99589
237.6314BRADIER Quentin36FRA2:40:176:41 8.98591
238.6520DAMBREVILLE Anthony27FRA2:40:396:42 8.96599
239.6510FAUCHET Romain33FRA2:41:066:43 8.94604
240.7597LEDENT Johan38BEL2:41:286:44 8.92609
241.6751MANNINO Massimo37FRAFER2:41:376:45 8.91610
242.7133MARTIN Pascal38FRA2:41:486:45 8.90612
243.6723LAPIERRE Gregory37FRA2:42:016:46 8.89618
244.7062BRABANT Nicolas38FRAB.A.C.2:42:126:46 8.88620
245.7210FAUCOEUR Sebastien31FRA2:42:156:46 8.88621
246.7546BOBET Loic32FRASANS2:42:156:46 8.88622
247.6265PINGUET Elric37FRA2:42:236:46 8.87625
248.7080SULLIGER Francois25FRA2:42:366:47 8.86629
249.6380BOSSAERT Guillaume28BEL2:42:426:47 8.85631
250.6969DECOIN Francois-Guillaume35FRA2:42:556:48 8.84635
251.6954MAIGNON Luc38FRA2:43:076:48 8.83639
252.6780WASILEWSKI Victor23FRA2:44:066:51 8.78653
253.6790FERNANDEZ DAIX Kevin Roberto28FRA2:45:046:53 8.72675
254.7039LEGRAND Thibault28FRA2:45:216:54 8.71677
255.6992BERENGUE Frédéric39FRA2:45:416:55 8.69680
256.6745GIUST Olivier39BELPAR PLAISIR2:46:086:56 8.67682
257.7434RENARD Antoine26BEL2:46:186:56 8.66688
258.7054FIGENWALD Arnaud35FRAARTOIS ATHLÉTISME2:46:316:57 8.65689
259.7312FLAMENG Laurent39BELJC DES COLLINES2:46:486:57 8.63693
260.7068LAHAYE Xavier33BELLES MOTIVÉS DU MARDI2:47:106:58 8.61698
261.6154STAQUET Laurent37FRALES GOUYTOIS2:47:146:59 8.61700
262.6643NOWAK Alban24FRA2:47:407:00 8.59706
263.6291DUPUIS Guillaume29BEL2:47:597:00 8.57714
264.6537DUQUESNE Florent31FRA2:48:187:01 8.56718
265.7409SADIN Jerome30BEL2:48:437:02 8.54725
266.6476BRANLY Julien31FRA2:48:557:03 8.53732
267.6758DACHEZ Sébastien37FRARC ARRAS2:49:087:03 8.51735
268.6207MOREL Nicolas39FRAMAUBEUGE MARATHON2:49:317:04 8.50740
269.6019DUPONT Renaud36FRAEUROTUNNEL2:49:457:05 8.48741
270.7079BOUSSEMAERE Thomas35FRA2:49:507:05 8.48742
271.7001BOSQUILLON DE JENLIS Edouard31FRA2:51:157:09 8.41758
272.6649BRIQUET Loic38FRA2:51:197:09 8.41759
273.6523DECOSTER Julien39FRA2:51:317:09 8.40765
274.6985CARLIER Martin38FRA2:51:347:09 8.39767
275.6088DE ROCKER Karel35BEL2:52:137:11 8.36772
276.7489ESPREUX Sébastien39BELTRAILEURS DES FAGNES2:52:387:12 8.34775
277.7454WULLAERT Maxime36BELTRAILEUR DES FAGNES2:53:487:15 8.29790
278.7395BREFORT MARTIN Antoine31FRA2:53:537:15 8.28791
279.7432ALTAZIN Alexandre23FRA2:54:147:16 8.27795
280.6449PREVOST Sebastien39FRA2:54:307:17 8.25805
281.6381FLAMENT Christophe37FRA2:54:387:17 8.25806
282.6183LEMAY Arnaud39FRA2:54:457:17 8.24810
283.7283SIMONS Frederic34BELLES MOTIVÉS DU MARDI2:54:527:18 8.24814
284.7140MAUX Bertrand33FRA2:55:107:18 8.22820
285.6354MABILLE Jonathan34BEL2:55:517:20 8.19835
286.6355WOLNY Jean-Christophe36BEL2:55:517:20 8.19836
287.6572VAN DOORSLAER Jean Baptiste34FRACAC CALLOTERIE2:56:037:21 8.18838
288.6371HOUTRELLE Guillaume33BEL2:56:237:21 8.16849
289.6743BOSQUET David35FRA2:56:527:23 8.14857
290.7507GEST Valère23FRA2:56:587:23 8.14859
291.6094VERCRUYSSE Benjamin38BEL2:57:227:24 8.12871
292.6586BÉTRÉMA Florent32FRA2:57:237:24 8.12872
293.6950OSSET Romain37FRA2:57:487:25 8.10882
294.6795WASTYN Lionel37FRACH'TIS BREIZH2:57:487:25 8.10883
295.7103MARION Jerome39BELPIPAIX2:58:077:26 8.08885
296.6525GREGOR Adrien37FRA2:58:287:27 8.07888
297.7421SERVAIS Thibaut36BELTRAILERS DES FAGNES2:58:587:28 8.05893
298.7280GODART Laurent32BEL2:59:437:30 8.01899
299.7243VANONGEVAL Cedric39BEL2:59:447:30 8.01900
300.7387MALINGUE Guillaume30FRA3:00:247:31 7.98905
301.6114STRUVAY Ludovic33BEL3:01:317:34 7.93912
302.6101SCHEERS Michael33BEL3:01:517:35 7.92914
303.6484DESCAMPS Nicolas37BEL3:01:527:35 7.92915
304.7530VOETEN Fabien39FRA3:02:237:36 7.90921
305.7550DECROIX Ludovic39FRA3:03:427:40 7.84939
306.7551BEN HAMOU Abdellah34FRA3:03:427:40 7.84940
307.7230FASQUELLE François31FRAAA SANTÉ SPORT3:04:587:43 7.79951
308.7576LENGAIGNE Simon36FRA3:05:007:43 7.78952
309.6261RENARD Vincent39BELRUN FOR FUN LIEGE3:05:337:44 7.76956
310.6185ZAOUIA Said32BEL3:05:497:45 7.75960
311.6770GARNIER Gary33BEL3:05:597:45 7.74962
312.6801DEBACKER Michaël34BEL3:07:397:50 7.67977
313.7128DELESPIERRE Alex35FRAKÉKÉ3:07:437:50 7.67979
314.7139MULLIEZ Nicolas32FRA3:07:437:50 7.67980
315.7412BOUTON Anthony35FRA3:07:467:50 7.67981
316.7413DANGUIEN David35FRA3:07:477:50 7.67982
317.7060HAREL Francois37FRA3:08:337:52 7.64987
318.7238PAJOT Valentin26FRA3:08:447:52 7.63989
319.7548DECROIX David34FRA3:08:547:53 7.62990
320.6938BROUTIN Peter36FRA3:10:327:57 7.561007
321.7260LOTIN Alexis34FRA3:11:488:00 7.511030
322.6084ADANS Julien32BELMYSTERE3:11:508:00 7.511034
323.6798FRANCOIS David39FRA3:12:068:01 7.501043
324.7405MERCIER Frederic38BEL3:12:168:01 7.491047
325.6296TOELEN Jean-François36BELLES GAULOIS3:13:258:04 7.451056
326.6212DEKOSTER Damien39BEL3:14:038:06 7.421078
327.7549BILLAUT Brian36FRA3:14:358:07 7.401082
328.6469CHARLIER Alexandre36BEL3:14:528:08 7.391089
329.6761SEIGNEUR Anthony38FRA3:15:198:09 7.371096
330.6835DEMEESTERE Grégoire29FRA3:16:508:13 7.321109
331.7138THOMÉ Arnaud34FRA3:17:568:15 7.281123
332.6939REAL Denis37FRA3:18:448:17 7.251134
333.7529GUERLE Kevin36FRA3:19:008:18 7.241135
334.6468PIRLOT Bernard36BEL3:20:358:22 7.181144
335.7449PAS Sébastien37BEL3:21:538:25 7.131159
336.7313RAICKMAN Christophe35BELBOUBIET TEAM3:22:548:28 7.101161
337.6526LEFEVRE Alexandre28FRA3:23:028:28 7.091163
338.6453GILLET Philippe37BEL3:24:038:31 7.061169
339.7599MARCHAL Xavier31FRA3:24:148:31 7.051174
340.7461LETOT Jordan36BEL3:25:068:33 7.021178
341.7213COIN Julien34FRACE ALSTOM - TEAM DU CAILL3:26:348:37 6.971184
342.6655COTTON Sebastien35FRA3:26:358:37 6.971186
343.7051LE NEINDRE Nicolas36FRA3:29:108:43 6.881198
344.7519MOSER Benoît37FRA3:30:388:47 6.841209
345.7165BALLY Julien27FRA3:30:578:48 6.831211
346.7557HOUSIEAUX Jacques38FRA3:32:258:52 6.781216
347.6471DUHAMEL Pascal39FRA3:34:578:58 6.701220
348.7577DUVAL Fabien38FRA3:40:319:12 6.531227
349.7177EL MOURABET Mehdi31BEL3:43:029:18 6.461233
DNF7127FLIPO Amaury36FRA
DNF6800FLIPO Ludovic34FRA
DNF6952FURRY Jean Baptiste39FRA
DNF7184HAENEN Régis34BELLES FORT MORTIVÉS
DNF6203LE FLOHIC Gwenaël36FRA
DNF6646LEFEBVRE Martin20FRALES TRAILS LENTS
DNF7266LORIDAN Nicolas31FRA
DNF: did not finish; DSQ: disqualified; Speed in km/h
Page: [1]